Flag for Canada Weather past 2 weeks in Eureka, Nunavut Territory, Canada

Now
-11 °F

Partly sunny.


Feels Like: -33 °F
Forecast: -9 / -1 °F
Wind: 14 mph from North

Location: Eureka

Current Time: Oct 21, 2014 at 2:18:27 PM

Latest Report: Oct 21, 2014 at 2:00 PM


Visibility: 10 mi

Pressure: 29.93 "Hg

Humidity: 76%

Dew point: -17 °F

Location of EurekaLocation

Historic Weather in Eureka — Graph

°F

Eureka temperature yesterday

Maximum temperature yesterday: -13 °F (at 7:00 PM)
Minimum temperature yesterday: -29 °F (at 1:00 AM)
Average temperature yesterday: -20 °F

Past Weeks' High & Low Weather Summary

 TemperatureHumidityPressure
High21 °F (Oct 13, 10:00 AM)100% (Oct 9, 6:00 PM)30.78 "Hg (Oct 9, 6:00 PM)
Low-29 °F (Oct 19, 7:00 PM)49% (Oct 6, 1:00 PM)29.57 "Hg (Oct 14, 3:00 PM)
Average1 °F82%30.19 "Hg
* Reported Oct 6 1:00 PM — Oct 21 1:00 PM, Eureka, Weather by CustomWeather, © 2014

Note: Actual official high and low records may vary slightly from our data, if they occured in-between our weather recording intervals... More about our weather records

Advertising

Eureka weather history for previous 24 hours

 ConditionsComfort  
Time TempWeatherWind HumidityBarometerVisibility
1:00 PM
Oct 21
-11 °FIce fog.10 mph84%29.94 "Hg6 mi
12:00 PM-11 °FLight snow. Partly sunny.10 mph76%29.96 "Hg6 mi
11:00 AM-11 °FLight snow. Overcast.7 mph76%29.97 "Hg5 mi
10:00 AM-9 °FLight snow. Overcast.10 mph84%29.98 "Hg5 mi
9:00 AM-9 °FLight snow. Overcast.9 mph64%29.99 "Hg5 mi
8:00 AM-9 °FLight snow. Overcast.No wind70%30.01 "Hg10 mi
7:00 AM-15 °FLight snow. Partly sunny.2 mph63%30.03 "Hg15 mi
6:00 AM-9 °FLight snow. Passing clouds.5 mph70%30.03 "Hg12 mi
5:00 AM-9 °FLight snow. Passing clouds.6 mph77%30.05 "Hg7 mi
4:00 AM-9 °FLight snow. Passing clouds.6 mph70%30.05 "Hg12 mi
3:00 AM-9 °FLight snow. Overcast.2 mph77%30.05 "Hg5 mi
2:00 AM-9 °FLight snow. Overcast.5 mph77%30.05 "Hg5 mi
1:00 AM-9 °FLight snow. Overcast.7 mph77%30.06 "Hg10 mi
12:00 AM-9 °FLight snow. Passing clouds.No wind77%30.06 "Hg15 mi
11:00 PM
Oct 20
-13 °FLight snow. Passing clouds.8 mph76%30.06 "Hg10 mi
10:00 PM-13 °FLight snow. Passing clouds.No wind69%30.06 "Hg5 mi
9:00 PM-13 °FLight snow. Passing clouds.No wind63%30.06 "Hg5 mi
8:00 PM-13 °FLight snow. Passing clouds.5 mph69%30.06 "Hg5 mi
7:00 PM-13 °FLight snow. Passing clouds.2 mph76%30.07 "Hg5 mi
6:00 PM-15 °FLight snow. Overcast.6 mph76%30.07 "Hg1 mi
5:00 PM-15 °FLight snow. Overcast.2 mph76%30.07 "Hg1 mi
4:00 PM-15 °FLight snow. Overcast.3 mph83%30.07 "Hg1 mi
3:00 PM-20 °FIce fog.8 mph83%30.08 "Hg2 mi
2:00 PM-22 °FIce fog.12 mph83%30.08 "Hg4 mi
Weather by CustomWeather, © 2014

See weather overviewHow to use our weather pages